EW9532 Weather Reports


time (UTC)temp
F
wind
direction
speed
knots
gust
knots
rain 1hr
in
rain 24hr
in
rain mn
in
humidity
%
barometer
mb
20260903092329 83 266 2.6 7.0 0.00 0.00 0.00 83 1014.1
20260903091829 83 18 3.5 8.7 0.00 0.00 0.00 83 1014.0
20260903091626 83 310 2.6 8.7 0.00 0.00 0.00 83 1014.2
20260903091329 83 183 1.7 9.6 0.00 0.00 0.00 83 1013.9
20260903090828 83 307 4.3 9.6 0.00 0.00 0.00 83 1014.0
20260903090616 83 246 3.5 10.4 0.00 0.00 0.00 83 1014.1
20260903085829 83 257 3.5 10.4 0.00 0.00 0.00 83 1014.1
20260903085329 83 149 3.5 8.7 0.00 0.00 0.00 83 1014.2
20260903084829 83 208 3.5 8.7 0.00 0.00 0.00 83 1014.0
20260903084558 83 290 4.3 8.7 0.00 0.00 0.00 82 1014.4
20260903084329 83 278 5.2 8.7 0.00 0.00 0.00 83 1014.2
20260903083829 83 53 2.6 8.7 0.00 0.00 0.00 83 1014.2
20260903083329 83 144 1.7 7.0 0.00 0.00 0.00 83 1014.3
20260903083106 83 287 2.6 6.1 0.00 0.00 0.00 82 1014.5
20260903082830 84 271 3.5 5.2 0.00 0.00 0.00 82 1014.4
20260903082330 84 274 2.6 9.6 0.00 0.00 0.00 82 1014.3
20260903081830 84 41 2.6 9.6 0.00 0.00 0.00 82 1014.2
20260903081607 83 203 2.6 8.7 0.00 0.00 0.00 82 1014.6
20260903081330 84 12 1.7 7.0 0.00 0.00 0.00 82 1014.2
20260903080828 84 348 3.5 5.2 0.00 0.00 0.00 82 1014.3
20260903080556 84 244 1.7 5.2 0.00 0.00 0.00 82 1014.3
20260903080103 83 162 2.6 7.8 0.00 0.00 0.00 82 1014.5
20260903075829 84 203 2.6 7.0 0.00 0.00 0.00 82 1014.3
20260903075329 84 354 1.7 7.0 0.00 0.00 0.00 82 1014.3
20260903074829 84 13 2.6 7.0 0.00 0.00 0.00 82 1014.3
20260903074627 84 356 1.7 10.4 0.00 0.00 0.00 82 1014.5
20260903074555 84 339 2.6 10.4 0.00 0.00 0.00 82 1014.3
20260903073828 84 126 2.6 10.4 0.00 0.00 0.00 82 1014.3
20260903073329 84 168 3.5 7.8 0.00 0.00 0.00 82 1014.3
20260903073059 84 205 3.5 7.0 0.00 0.00 0.00 81 1014.5
20260903072831 84 216 3.5 7.8 0.00 0.00 0.00 82 1014.2
20260903072330 84 228 3.5 9.6 0.00 0.00 0.00 82 1014.3
20260903072314 84 314 3.5 9.6 0.00 0.00 0.00 81 1014.2
20260903071607 84 216 3.5 10.4 0.00 0.00 0.00 81 1014.5
20260903071330 85 324 3.5 7.8 0.00 0.00 0.00 81 1014.5
20260903071323 85 29 3.5 13.9 0.00 0.00 0.00 81 1014.5
20260903070328 85 340 5.2 13.9 0.00 0.00 0.00 81 1014.5
20260903070115 84 151 2.6 8.7 0.00 0.00 0.00 80 1014.6
20260903065829 85 245 3.5 7.0 0.00 0.00 0.00 81 1014.5
20260903065329 85 262 3.5 7.0 0.00 0.00 0.00 81 1014.4
20260903064829 85 60 3.5 8.7 0.00 0.00 0.00 81 1014.6
20260903064555 84 41 2.6 8.7 0.00 0.00 0.00 81 1014.6
20260903064552 85 56 3.5 8.7 0.00 0.00 0.00 81 1014.6
20260903063829 85 268 4.3 7.8 0.00 0.00 0.00 81 1014.6
20260903063328 85 290 1.7 8.7 0.00 0.00 0.00 81 1014.5
20260903063105 84 296 2.6 13.9 0.00 0.00 0.00 81 1014.7
20260903063056 85 101 3.5 11.3 0.00 0.00 0.00 81 1014.6
20260903062556 85 288 3.5 11.3 0.00 0.00 0.00 81 1014.6
20260903061829 85 198 3.5 7.0 0.00 0.00 0.00 81 1014.5
20260903061611 84 212 1.7 7.8 0.00 0.00 0.00 81 1014.7
20260903061329 85 304 0.9 6.1 0.00 0.00 0.00 82 1014.6
20260903061054 85 132 2.6 7.0 0.00 0.00 0.00 81 1014.6
20260903060328 85 250 2.6 8.7 0.00 0.00 0.00 81 1014.6
20260903060100 85 259 2.6 7.8 0.00 0.00 0.00 81 1014.8
20260903055830 85 98 3.5 8.7 0.00 0.00 0.00 81 1014.6
20260903055330 85 112 2.6 7.0 0.00 0.00 0.00 81 1014.7
20260903055101 85 103 1.7 8.7 0.00 0.00 0.00 81 1014.7
20260903054602 85 149 3.5 8.7 0.00 0.00 0.00 80 1014.9
20260903054329 85 53 3.5 8.7 0.00 0.00 0.00 81 1014.7
20260903053829 85 172 0.9 7.8 0.00 0.00 0.00 80 1014.7
20260903053329 85 85 3.5 7.8 0.00 0.00 0.00 80 1014.7
20260903053101 85 342 2.6 8.7 0.00 0.00 0.00 80 1014.9
20260903052830 85 184 2.6 6.1 0.00 0.00 0.00 80 1014.6
20260903052555 85 168 2.6 6.1 0.00 0.00 0.00 81 1014.6
20260903051830 85 271 2.6 7.0 0.00 0.00 0.00 81 1014.7
20260903051603 85 314 2.6 7.0 0.00 0.00 0.00 80 1014.9
20260903051330 85 160 1.7 7.8 0.00 0.00 0.00 81 1014.7
20260903050830 85 284 1.7 8.7 0.00 0.00 0.00 80 1014.7
20260903050552 86 146 2.6 8.7 0.00 0.00 0.00 80 1014.7
20260903050111 85 156 2.6 12.2 0.00 0.00 0.00 80 1014.9
20260903045829 86 321 2.6 8.7 0.00 0.00 0.00 80 1014.8
20260903045329 86 240 2.6 8.7 0.00 0.00 0.00 80 1014.7
20260903044829 86 63 1.7 7.8 0.00 0.00 0.00 80 1014.9
20260903044605 85 301 2.6 8.7 0.00 0.00 0.00 79 1015.0
20260903044329 86 242 4.3 7.8 0.00 0.00 0.00 80 1014.8
20260903043829 86 261 2.6 11.3 0.00 0.00 0.00 79 1014.9
20260903043551 86 330 2.6 11.3 0.00 0.00 0.00 79 1014.9
20260903043103 85 274 3.5 11.3 0.00 0.00 0.00 78 1015.2
20260903042829 86 342 3.5 7.0 0.00 0.00 0.00 79 1015.1
20260903042329 86 90 1.7 8.7 0.00 0.00 0.00 78 1015.1
20260903041829 86 293 4.3 8.7 0.00 0.00 0.00 78 1015.0
20260903041611 86 145 2.6 11.3 0.00 0.00 0.00 77 1015.3
20260903041328 86 124 3.5 7.8 0.00 0.00 0.00 77 1015.0
20260903040828 86 345 2.6 8.7 0.00 0.00 0.00 77 1015.0
20260903040329 86 238 3.5 9.6 0.00 0.00 0.00 77 1015.0
20260903040109 86 64 5.2 9.6 0.00 0.00 0.00 77 1015.2
20260903040106 87 187 5.2 9.6 0.00 0.00 0.00 77 1015.0
20260903035332 87 60 2.6 7.0 0.00 0.00 0.00 77 1015.0
20260903034844 87 165 3.5 8.7 0.00 0.00 0.00 77 1014.9
20260903034600 86 249 4.3 10.4 0.00 0.00 0.00 77 1015.0
20260903034330 87 52 4.3 9.6 0.00 0.00 0.00 77 1014.9
20260903033830 87 237 3.5 11.3 0.00 0.00 0.00 76 1014.9
20260903033329 87 43 2.6 11.3 0.00 0.00 0.00 76 1014.9
20260903033101 86 40 4.3 10.4 0.00 0.00 0.00 76 1015.0
20260903032829 87 115 5.2 11.3 0.00 0.00 0.00 76 1014.8
20260903032329 87 349 3.5 11.3 0.00 0.00 0.00 76 1014.7
20260903031829 87 129 3.5 9.6 0.00 0.00 0.00 76 1014.5
20260903031556 87 255 3.5 9.6 0.00 0.00 0.00 75 1014.9
20260903031329 87 269 1.7 7.8 0.00 0.00 0.00 76 1014.5
20260903031051 87 160 3.5 7.8 0.00 0.00 0.00 76 1014.6
20260903030328 87 208 3.5 6.1 0.00 0.00 0.00 76 1014.3
20260903025831 87 284 2.6 9.6 0.00 0.00 0.00 75 1014.2
20260903025811 87 96 4.3 11.3 0.00 0.00 0.00 75 1014.2
20260903024830 87 308 4.3 11.3 0.00 0.00 0.00 75 1014.1
20260903024604 87 35 2.6 9.6 0.00 0.00 0.00 74 1014.1
20260903024343 87 195 4.3 8.7 0.00 0.00 0.00 75 1014.1
20260903023841 88 339 4.3 8.7 0.00 0.00 0.00 75 1013.9
20260903023337 88 290 5.2 8.7 0.00 0.00 0.00 75 1013.7
20260903023057 87 263 4.3 10.4 0.00 0.00 0.00 74 1014.0
20260903022831 88 86 4.3 9.6 0.00 0.00 0.00 75 1013.7
20260903022331 88 309 5.2 9.6 0.00 0.00 0.00 74 1013.6
20260903021830 88 332 4.3 8.7 0.00 0.00 0.00 74 1013.6
20260903021555 88 306 3.5 9.6 0.00 0.00 0.00 73 1013.7
20260903021330 88 136 4.3 8.7 0.00 0.00 0.00 73 1013.4
20260903021105 89 75 3.5 9.6 0.00 0.00 0.00 73 1013.3
20260903020606 89 321 3.5 9.6 0.00 0.00 0.00 72 1013.2
20260903020117 89 257 3.5 11.3 0.00 0.00 0.00 71 1013.1
20260903020058 88 295 5.2 10.4 0.00 0.00 0.00 71 1013.3
20260903015552 89 359 5.2 11.3 0.00 0.00 0.00 70 1012.9
20260903015317 89 76 3.5 11.3 0.00 0.00 0.00 70 1012.9
20260903014613 89 337 3.5 11.3 0.00 0.00 0.00 68 1013.1
20260903014329 90 39 2.6 11.3 0.00 0.00 0.00 68 1012.8
20260903013828 90 152 5.2 8.7 0.00 0.00 0.00 67 1012.9
20260903013329 91 316 4.3 10.4 0.00 0.00 0.00 66 1012.8
20260903013107 90 248 4.3 11.3 0.00 0.00 0.00 65 1013.0
20260903012814 91 129 5.2 10.4 0.00 0.00 0.00 65 1012.7
20260903012551 91 221 5.2 9.6 0.00 0.00 0.00 64 1012.6
20260903011809 92 181 3.5 8.7 0.00 0.00 0.00 62 1012.5
20260903011622 91 37 4.3 9.6 0.00 0.00 0.00 61 1012.5
20260903011306 92 185 4.3 9.6 0.00 0.00 0.00 61 1012.4
20260903010806 92 65 3.5 9.6 0.00 0.00 0.00 60 1012.3
20260903010301 93 167 4.3 7.8 0.00 0.00 0.00 58 1012.2
20260903010108 92 47 3.5 9.6 0.00 0.00 0.00 57 1012.3
20260903005802 93 315 2.6 8.7 0.00 0.00 0.00 57 1012.1
20260903005259 93 232 4.3 8.7 0.00 0.00 0.00 57 1012.1
20260903004753 94 162 3.5 7.8 0.00 0.00 0.00 56 1012.0
20260903004608 93 184 4.3 8.7 0.00 0.00 0.00 56 1012.2
20260903004249 94 242 3.5 7.8 0.00 0.00 0.00 56 1012.0
20260903003744 95 21 2.6 7.8 0.00 0.00 0.00 54 1011.9
20260903003238 95 259 3.5 9.6 0.00 0.00 0.00 53 1011.9
20260903003125 95 285 2.6 8.7 0.00 0.00 0.00 51 1012.2
20260903002954 96 160 3.5 9.6 0.00 0.00 0.00 50 1011.7
20260903002229 96 23 3.5 7.8 0.00 0.00 0.00 48 1011.7
20260903001951 96 252 3.5 11.3 0.00 0.00 0.00 49 1011.8
20260903001603 96 65 3.5 11.3 0.00 0.00 0.00 49 1011.9
20260903001229 96 134 5.2 11.3 0.00 0.00 0.00 49 1011.7
20260903000729 96 42 5.2 8.7 0.00 0.00 0.00 49 1011.6
20260903000229 97 225 4.3 12.2 0.00 0.00 0.00 49 1011.8
20260903000054 97 75 2.6 11.3 0.00 0.00 0.00 48 1011.9
20260902235728 98 202 2.6 12.2 0.00 0.00 0.00 49 1011.6
20260902235229 98 158 3.5 9.6 0.00 0.00 0.00 48 1011.7
20260902234730 98 195 3.5 7.8 0.00 0.00 0.00 44 1011.6
20260902234554 98 302 3.5 7.8 0.00 0.00 0.00 43 1011.8
20260902234229 99 338 2.6 7.0 0.00 0.00 0.00 42 1011.4
20260902233957 99 110 2.6 8.7 0.00 0.00 0.00 40 1011.6
20260902233228 99 289 4.3 9.6 0.00 0.00 0.00 40 1011.6
20260902233104 99 1 3.5 9.6 0.00 0.00 0.00 39 1011.8
20260902232729 99 131 3.5 9.6 0.00 0.00 0.00 40 1011.4
20260902232229 100 148 3.5 7.8 0.00 0.00 0.00 40 1011.6
20260902231729 100 184 3.5 7.8 0.00 0.00 0.00 39 1011.4
20260902231603 100 144 3.5 9.6 0.00 0.00 0.00 39 1011.7
20260902231454 101 204 3.5 7.8 0.00 0.00 0.00 39 1011.4
20260902230729 101 90 4.3 7.0 0.00 0.00 0.00 39 1011.6
20260902230229 101 221 3.5 7.8 0.00 0.00 0.00 40 1011.6
20260902230059 101 79 3.5 9.6 0.00 0.00 0.00 39 1011.7
20260902225950 101 350 3.5 7.8 0.00 0.00 0.00 40 1011.6
20260902225231 102 340 3.5 10.4 0.00 0.00 0.00 40 1011.6
20260902224731 102 15 4.3 10.4 0.00 0.00 0.00 40 1011.6
20260902224625 101 277 2.6 8.7 0.00 0.00 0.00 40 1011.8
20260902224230 102 4 2.6 8.7 0.00 0.00 0.00 41 1011.7
20260902223731 102 240 3.5 7.8 0.00 0.00 0.00 41 1011.6
20260902223238 102 200 2.6 7.8 0.00 0.00 0.00 41 1011.6
20260902223100 101 115 2.6 8.7 0.00 0.00 0.00 42 1011.8
20260902222729 102 351 3.5 9.6 0.00 0.00 0.00 42 1011.4
20260902222230 102 20 4.3 9.6 0.00 0.00 0.00 42 1011.4
20260902221958 103 295 2.6 7.0 0.00 0.00 0.00 43 1011.4
20260902221557 102 319 1.7 9.6 0.00 0.00 0.00 42 1011.7
20260902221229 102 219 4.3 9.6 0.00 0.00 0.00 42 1011.6
20260902220728 102 138 3.5 9.6 0.00 0.00 0.00 43 1011.4
20260902220229 102 236 4.3 8.7 0.00 0.00 0.00 42 1011.4
20260902220101 102 186 2.6 8.7 0.00 0.00 0.00 41 1011.7
20260902220016 102 117 3.5 7.8 0.00 0.00 0.00 42 1011.4
20260902215229 102 12 4.3 8.7 0.00 0.00 0.00 43 1011.6
20260902214952 102 302 3.5 8.7 0.00 0.00 0.00 43 1011.6
20260902214556 102 248 3.5 8.7 0.00 0.00 0.00 42 1011.7
20260902214229 102 216 4.3 7.8 0.00 0.00 0.00 44 1011.6
20260902213729 103 209 4.3 7.8 0.00 0.00 0.00 43 1011.6
20260902213229 102 252 3.5 7.8 0.00 0.00 0.00 45 1011.6
20260902213106 102 321 3.5 8.7 0.00 0.00 0.00 44 1011.9
20260902212954 102 239 5.2 7.8 0.00 0.00 0.00 46 1011.8
20260902212448 101 73 3.5 7.8 0.00 0.00 0.00 44 1011.6
20260902211721 102 46 3.5 7.8 0.00 0.00 0.00 45 1011.8
20260902211558 101 120 2.6 7.0 0.00 0.00 0.00 44 1012.0
20260902211216 102 91 1.7 7.0 0.00 0.00 0.00 44 1011.8
20260902210951 102 311 2.6 5.2 0.00 0.00 0.00 44 1011.9
20260902210209 103 311 2.6 7.0 0.00 0.00 0.00 43 1011.9
20260902210108 102 205 1.7 7.0 0.00 0.00 0.00 42 1012.2
20260902205707 103 91 2.6 7.0 0.00 0.00 0.00 42 1012.0
20260902205429 103 221 2.6 6.1 0.00 0.00 0.00 41 1012.1
20260902204703 104 272 3.5 6.1 0.00 0.00 0.00 43 1012.1
20260902204554 103 126 2.6 7.8 0.00 0.00 0.00 42 1012.3
20260902204203 104 244 3.5 7.8 0.00 0.00 0.00 40 1012.2
20260902203701 105 111 4.3 7.8 0.00 0.00 0.00 40 1012.2
20260902203425 105 311 3.5 7.8 0.00 0.00 0.00 39 1012.2
20260902203052 104 290 2.6 6.1 0.00 0.00 0.00 39 1012.4
20260902202701 105 326 2.6 5.2 0.00 0.00 0.00 39 1012.4
20260902202200 104 222 2.6 6.1 0.00 0.00 0.00 39 1012.5
20260902201703 104 65 2.6 6.1 0.00 0.00 0.00 39 1012.5
20260902201602 103 65 1.7 6.1 0.00 0.00 0.00 39 1012.8
20260902201201 104 245 1.7 6.1 0.00 0.00 0.00 40 1012.6
20260902200922 104 230 2.6 6.1 0.00 0.00 0.00 39 1012.8
20260902200201 103 130 1.7 6.1 0.00 0.00 0.00 39 1012.8
20260902200056 103 94 1.7 6.1 0.00 0.00 0.00 40 1013.0
20260902195701 103 245 3.5 7.0 0.00 0.00 0.00 40 1013.0
20260902195200 103 13 1.7 7.0 0.00 0.00 0.00 40 1013.1
20260902195148 103 103 2.6 7.8 0.00 0.00 0.00 41 1013.2
20260902194556 102 101 2.6 7.0 0.00 0.00 0.00 40 1013.5
20260902194203 103 162 3.5 7.8 0.00 0.00 0.00 38 1013.4
20260902193703 103 233 2.6 7.8 0.00 0.00 0.00 41 1013.4
20260902193202 103 211 2.6 5.2 0.00 0.00 0.00 41 1013.4
20260902193100 102 190 1.7 7.0 0.00 0.00 0.00 40 1013.6
20260902192702 103 0 2.6 6.1 0.00 0.00 0.00 44 1013.4
20260902192202 102 250 3.5 7.0 0.00 0.00 0.00 43 1013.7
20260902191701 102 110 3.5 7.0 0.00 0.00 0.00 42 1013.6
20260902191606 101 105 3.5 7.0 0.00 0.00 0.00 42 1013.8
20260902191423 102 347 3.5 7.0 0.00 0.00 0.00 43 1013.8
20260902190701 101 325 1.7 6.1 0.00 0.00 0.00 45 1013.9
20260902190201 101 261 2.6 7.8 0.00 0.00 0.00 44 1014.0
20260902190056 101 304 2.6 7.8 0.00 0.00 0.00 44 1014.2
20260902185701 101 6 4.3 9.6 0.00 0.00 0.00 46 1014.0
20260902185200 101 295 2.6 11.3 0.00 0.00 0.00 44 1014.1
20260902184703 101 344 4.3 11.3 0.00 0.00 0.00 45 1014.2
20260902184603 101 210 2.6 7.8 0.00 0.00 0.00 44 1014.4
20260902184203 101 198 2.6 6.1 0.00 0.00 0.00 46 1014.2
20260902183733 101 167 2.6 9.6 0.00 0.00 0.00 46 1014.4
20260902183202 101 255 4.3 9.6 0.00 0.00 0.00 47 1014.5
20260902183103 100 185 1.7 7.0 0.00 0.00 0.00 47 1014.6
20260902182702 101 20 2.6 6.1 0.00 0.00 0.00 47 1014.5
20260902182208 101 200 2.6 6.1 0.00 0.00 0.00 48 1014.5
20260902181703 100 320 2.6 12.2 0.00 0.00 0.00 48 1014.5
20260902181557 99 17 1.7 11.3 0.00 0.00 0.00 46 1014.9
20260902181203 100 119 5.2 12.2 0.00 0.00 0.00 47 1014.8
20260902180702 100 316 2.6 7.8 0.00 0.00 0.00 49 1014.8
20260902180206 100 302 3.5 7.8 0.00 0.00 0.00 50 1015.0
20260902180126 99 240 1.7 9.6 0.00 0.00 0.00 49 1015.3
20260902175701 99 34 1.7 10.4 0.00 0.00 0.00 49 1015.1
20260902175201 99 40 4.3 10.4 0.00 0.00 0.00 50 1015.2
20260902174702 98 27 1.7 6.1 0.00 0.00 0.00 54 1015.3
20260902174648 98 174 2.6 6.1 0.00 0.00 0.00 51 1015.5
20260902174201 98 205 2.6 8.7 0.00 0.00 0.00 53 1015.5
20260902173925 98 2 3.5 8.7 0.00 0.00 0.00 51 1015.5
20260902173200 98 143 3.5 7.0 0.00 0.00 0.00 52 1015.5
20260902173057 97 291 1.7 7.0 0.00 0.00 0.00 52 1015.8
20260902172701 97 122 3.5 7.0 0.00 0.00 0.00 53 1015.6
20260902172200 97 105 3.5 11.3 0.00 0.00 0.00 54 1015.7
20260902171923 97 50 4.3 11.3 0.00 0.00 0.00 53 1015.8
20260902171609 97 56 1.7 8.7 0.00 0.00 0.00 52 1015.9
20260902171201 97 319 3.5 7.8 0.00 0.00 0.00 54 1015.8
20260902170701 97 297 3.5 7.0 0.00 0.00 0.00 54 1015.8
20260902170424 97 146 1.7 7.0 0.00 0.00 0.00 54 1016.0
20260902170054 96 128 2.6 9.6 0.00 0.00 0.00 55 1016.1
20260902165700 96 250 1.7 9.6 0.00 0.00 0.00 54 1015.9
20260902165201 96 229 5.2 9.6 0.00 0.00 0.00 56 1015.9
20260902164700 96 205 2.6 5.2 0.00 0.00 0.00 57 1016.1
20260902164559 96 148 1.7 5.2 0.00 0.00 0.00 56 1016.4
20260902164201 96 20 2.6 5.2 0.00 0.00 0.00 58 1016.2
20260902163701 96 307 1.7 6.1 0.00 0.00 0.00 58 1016.2
20260902163201 95 65 2.6 7.0 0.00 0.00 0.00 60 1016.4
20260902163104 94 311 3.5 7.0 0.00 0.00 0.00 58 1016.5
20260902162700 95 278 2.6 7.0 0.00 0.00 0.00 60 1016.3
20260902162201 94 236 1.7 8.7 0.00 0.00 0.00 61 1016.3
20260902161702 94 287 3.5 8.7 0.00 0.00 0.00 61 1016.4
20260902161605 93 204 1.7 7.8 0.00 0.00 0.00 61 1016.6
20260902161201 94 352 2.6 7.8 0.00 0.00 0.00 62 1016.4
20260902160925 93 186 3.5 7.8 0.00 0.00 0.00 62 1016.2
20260902160223 92 277 2.6 7.0 0.00 0.00 0.00 63 1016.5
20260902160201 93 250 1.7 7.8 0.00 0.00 0.00 63 1016.3
20260902155931 92 281 2.6 7.0 0.00 0.00 0.00 63 1016.4
20260902155202 92 87 2.6 7.0 0.00 0.00 0.00 65 1016.4
20260902154700 92 143 3.5 7.0 0.00 0.00 0.00 65 1016.5
20260902154629 91 340 1.7 7.8 0.00 0.00 0.00 65 1016.7
20260902154201 91 97 2.6 7.0 0.00 0.00 0.00 67 1016.5
20260902153653 91 236 3.5 7.0 0.00 0.00 0.00 67 1016.5
20260902153152 91 166 4.3 7.0 0.00 0.00 0.00 67 1016.4
20260902153141 90 119 3.5 7.8 0.00 0.00 0.00 67 1016.6
20260902153105 90 119 3.5 7.8 0.00 0.00 0.00 67 1016.6
20260902152651 90 122 2.6 7.0 0.00 0.00 0.00 69 1016.3
20260902152135 90 302 2.6 7.0 0.00 0.00 0.00 70 1016.3
20260902151629 90 262 2.6 7.0 0.00 0.00 0.00 71 1016.2
20260902151611 89 264 2.6 8.7 0.00 0.00 0.00 71 1016.5
20260902151129 89 234 3.5 7.0 0.00 0.00 0.00 72 1016.1
20260902150629 89 67 2.6 7.8 0.00 0.00 0.00 73 1016.1
20260902150129 89 288 3.5 7.8 0.00 0.00 0.00 74 1016.2
20260902145629 88 290 4.3 7.8 0.00 0.00 0.00 74 1016.3
20260902145347 88 135 4.3 7.8 0.00 0.00 0.00 75 1016.3
20260902144628 87 260 3.5 6.1 0.00 0.00 0.00 76 1016.2
20260902144555 87 161 1.7 7.8 0.00 0.00 0.00 75 1016.5
20260902144129 87 34 3.5 7.8 0.00 0.00 0.00 78 1016.2
20260902143857 87 305 4.3 7.8 0.00 0.00 0.00 77 1016.3
20260902143129 87 300 2.6 6.1 0.00 0.00 0.00 79 1016.2
20260902143055 86 338 1.7 7.0 0.00 0.00 0.00 78 1016.5
20260902142628 86 328 3.5 6.1 0.00 0.00 0.00 79 1016.3
20260902142127 86 162 2.6 5.2 0.00 0.00 0.00 80 1016.2
20260902141932 85 49 2.6 7.8 0.00 0.00 0.00 81 1016.5
20260902141601 85 161 2.6 7.8 0.00 0.00 0.00 82 1016.2
20260902141321 85 247 2.6 6.1 0.00 0.00 0.00 82 1016.2
20260902140601 84 200 2.6 7.0 0.00 0.00 0.00 83 1016.3
20260902140107 84 1 3.5 7.0 0.00 0.00 0.00 83 1016.2
20260902135822 84 74 1.7 5.2 0.00 0.00 0.00 84 1016.4
20260902135031 84 316 2.6 7.0 0.00 0.00 0.00 84 1016.2
20260902134611 83 236 2.6 7.0 0.00 0.00 0.00 84 1016.4
20260902134532 83 288 2.6 7.0 0.00 0.00 0.00 84 1016.2
20260902134032 83 269 1.7 4.3 0.00 0.00 0.00 84 1016.3
20260902133750 83 210 1.7 5.2 0.00 0.00 0.00 84 1016.2
20260902133104 83 207 0.9 5.2 0.00 0.00 0.00 84 1016.5
20260902133031 83 186 1.7 5.2 0.00 0.00 0.00 85 1016.1
20260902132531 83 180 0.9 5.2 0.00 0.00 0.00 84 1016.3
20260902132027 83 178 1.7 3.5 0.00 0.00 0.00 85 1016.2
20260902131635 83 311 0.9 4.3 0.00 0.00 0.00 84 1016.3
20260902131524 83 200 1.7 4.3 0.00 0.00 0.00 85 1016.0
20260902131021 83 320 1.7 4.3 0.00 0.00 0.00 84 1015.9
20260902130743 83 136 0.0 3.5 0.00 0.00 0.00 85 1015.9
20260902130453 83 359 0.9 3.5 0.00 0.00 0.00 86 1015.9
20260902130059 82 160 0.9 3.5 0.00 0.00 0.00 85 1016.0
20260902125510 83 269 1.7 5.2 0.00 0.00 0.00 86 1015.8
20260902125005 82 225 1.7 5.2 0.00 0.00 0.00 87 1015.8
20260902124620 82 208 0.0 4.3 0.00 0.00 0.00 87 1015.9
20260902124502 82 18 0.9 4.3 0.00 0.00 0.00 87 1015.7
20260902124003 82 219 1.7 4.3 0.00 0.00 0.00 88 1015.8
20260902123502 81 27 0.0 1.7 0.00 0.00 0.00 88 1015.7
20260902123137 81 98 0.0 4.3 0.00 0.00 0.00 87 1015.8
20260902123001 81 123 0.9 4.3 0.00 0.00 0.00 88 1015.6
20260902122502 81 338 1.7 4.3 0.00 0.00 0.00 87 1015.6
20260902122002 82 213 0.9 3.5 0.00 0.00 0.00 87 1015.7
20260902121642 81 0 0.9 3.5 0.00 0.00 0.00 87 1015.7
20260902121501 82 96 1.7 3.5 0.00 0.00 0.00 87 1015.6
20260902121004 82 269 0.9 3.5 0.00 0.00 0.00 87 1015.6
20260902120503 82 274 0.9 3.5 0.00 0.00 0.00 87 1015.5
20260902120004 82 1 0.9 4.3 0.00 0.00 0.00 87 1015.6
20260902115503 82 322 1.7 4.3 0.00 0.00 0.00 87 1015.6
20260902115225 82 66 1.7 4.3 0.00 0.00 0.00 87 1015.6
20260902114557 81 320 0.9 5.2 0.00 0.00 0.00 86 1015.7
20260902114503 82 226 0.9 4.3 0.00 0.00 0.00 86 1015.5
20260902114004 82 73 0.0 3.5 0.00 0.00 0.00 86 1015.4
20260902113504 82 187 1.7 3.5 0.00 0.00 0.00 86 1015.4
20260902113228 82 329 1.7 6.1 0.00 0.00 0.00 86 1015.3
20260902113202 81 223 0.9 5.2 0.00 0.00 0.00 86 1015.6
20260902112515 82 263 1.7 6.1 0.00 0.00 0.00 86 1015.3
20260902112016 82 207 2.6 3.5 0.00 0.00 0.00 86 1015.4
20260902111657 82 288 1.7 6.1 0.00 0.00 0.00 85 1015.6
20260902111503 82 119 1.7 3.5 0.00 0.00 0.00 86 1015.4
20260902111236 82 225 2.6 5.2 0.00 0.00 0.00 85 1015.4
20260902110503 82 345 2.6 6.1 0.00 0.00 0.00 85 1015.4
20260902110243 82 278 1.7 7.0 0.00 0.00 0.00 85 1015.5
20260902110125 82 278 1.7 7.0 0.00 0.00 0.00 85 1015.5
20260902110006 82 287 2.6 6.1 0.00 0.00 0.00 85 1015.3
20260902105503 82 247 1.7 3.5 0.00 0.00 0.00 85 1015.3
20260902105003 82 252 0.9 5.2 0.00 0.00 0.00 85 1015.4
20260902104616 82 275 0.9 6.1 0.00 0.00 0.00 85 1015.4
20260902104501 82 155 1.7 5.2 0.00 0.00 0.00 85 1015.3
20260902104226 82 184 1.7 5.2 0.00 0.00 0.00 85 1015.5
20260902103721 82 6 2.6 6.1 0.00 0.00 0.00 85 1015.5
20260902103052 82 70 1.7 6.1 0.00 0.00 0.00 85 1015.6
20260902103002 82 176 1.7 6.1 0.00 0.00 0.00 85 1015.5
20260902102943 82 191 2.6 6.1 0.00 0.00 0.00 85 1015.3
20260902102002 82 67 0.9 6.1 0.00 0.00 0.00 85 1015.3
20260902101601 82 260 1.7 5.2 0.00 0.00 0.00 84 1015.5
20260902101501 82 97 1.7 6.1 0.00 0.00 0.00 85 1015.4
20260902101017 82 302 1.7 5.2 0.00 0.00 0.00 85 1015.4
20260902100516 83 152 2.6 5.2 0.00 0.00 0.00 85 1015.5
20260902100326 82 72 1.7 6.1 0.00 0.00 0.00 84 1015.7
20260902100119 82 72 1.7 6.1 0.00 0.00 0.00 84 1015.7
20260902100004 83 180 1.7 5.2 0.00 0.00 0.00 85 1015.4
20260902095517 83 278 1.7 4.3 0.00 0.00 0.00 85 1015.4
20260902095001 83 327 1.7 6.1 0.00 0.00 0.00 85 1015.5
20260902094607 82 105 1.7 6.1 0.00 0.00 0.00 84 1015.7
20260902094502 83 278 2.6 6.1 0.00 0.00 0.00 84 1015.5
20260902094002 83 37 3.5 4.3 0.00 0.00 0.00 84 1015.5
20260902093502 83 345 0.9 3.5 0.00 0.00 0.00 84 1015.6
20260902093146 82 256 1.7 6.1 0.00 0.00 0.00 84 1015.8
20260902093002 83 6 1.7 4.3 0.00 0.00 0.00 84 1015.6
20260902092502 83 177 2.6 6.1 0.00 0.00 0.00 84 1015.6